This is the latest recevied weather packets stored in our database for station/object W8AN. If no packets are shown the sender has not sent any weather packets the latest 10 day(s).
| Time | Temp. | Humidity | Pressure | Rain* | Wind** | Luminosity | Snow |
|---|---|---|---|---|---|---|---|
| 1777402234 | 17.22° C | 72% | 4267.2 hPa | 0 mm | - | 301 W/m² | - |
| 1777401929 | 16.67° C | 71% | 4267.4 hPa | 0 mm | - | 387 W/m² | - |
| 1777401628 | 17.22° C | 72% | 4267.4 hPa | 0 mm | - | 324 W/m² | - |
| 1777401325 | 17.22° C | 73% | 4267.3 hPa | 0 mm | - | 459 W/m² | - |
| 1777401021 | 16.67° C | 73% | 4267.4 hPa | 0 mm | - | 585 W/m² | - |
| 1777400717 | 16.67° C | 71% | 4267.3 hPa | 0 mm | - | 413 W/m² | - |
| 1777400415 | 16.67° C | 72% | 4267.5 hPa | 0 mm | - | 358 W/m² | - |
| 1777400115 | 16.67° C | 73% | 4267.4 hPa | 0 mm | - | 314 W/m² | - |
| 1777399812 | 16.67° C | 74% | 4267.5 hPa | 0 mm | - | 271 W/m² | - |
| 1777399509 | 16.67° C | 73% | 4267.3 hPa | 0 mm | - | 386 W/m² | - |
| 1777399206 | 16.67° C | 74% | 4267 hPa | 0 mm | - | 252 W/m² | - |
| 1777398903 | 16.67° C | 74% | 4267.1 hPa | 0 mm | - | 217 W/m² | - |
| 1777398600 | 16.67° C | 74% | 4267 hPa | 0 mm | - | 320 W/m² | - |
| 1777398296 | 16.67° C | 73% | 4267 hPa | 0 mm | - | 290 W/m² | - |
| 1777397994 | 16.67° C | 74% | 4267.2 hPa | 0 mm | - | 256 W/m² | - |
| 1777397690 | 16.67° C | 73% | 4267.2 hPa | 0 mm | - | 277 W/m² | - |
| 1777397386 | 16.67° C | 74% | 4267 hPa | 0 mm | - | 380 W/m² | - |
| 1777397083 | 16.67° C | 73% | 4267.1 hPa | 0 mm | - | 220 W/m² | - |
| 1777396779 | 16.67° C | 73% | 4267 hPa | 0 mm | - | 192 W/m² | - |
| 1777396476 | 16.67° C | 73% | 4267 hPa | 0 mm | - | 209 W/m² | - |
| 1777396173 | 17.22° C | 73% | 4267 hPa | 0 mm | - | 307 W/m² | - |
| 1777395869 | 16.67° C | 73% | 4267 hPa | 0 mm | - | 383 W/m² | - |
| 1777395564 | 16.67° C | 73% | 4266.9 hPa | 0 mm | - | 424 W/m² | - |
| 1777395261 | 17.22° C | 72% | 4266.7 hPa | 0 mm | - | 459 W/m² | - |
| 1777394959 | 16.67° C | 73% | 4266.7 hPa | 0 mm | - | 317 W/m² | - |
* Rain latest hour (hover to see other rain measurements)
** Current wind speed in m/s (hover to see current wind gust speed)